CW4226 Weather Reports


time (UTC)temp
C
wind
direction
speed
KPH
gust
KPH
rain 1hr
cm
rain 24hr
cm
rain mn
cm
humidity
%
barometer
mb
20260902133007 22 210 0.0 1.6 0.00 0.03 0.03 89 1013.5
20260902132756 22 50 0.0 3.2 0.00 0.00 0.00 88 1015.3
20260902132251 22 84 0.0 1.6 0.00 0.00 0.00 88 1014.9
20260902131747 22 46 0.0 1.6 0.00 0.00 0.00 87 1015.0
20260902131507 22 210 0.0 1.6 0.00 0.03 0.03 88 1013.3
20260902131243 22 68 1.6 3.2 0.00 0.00 0.00 88 1015.0
20260902130743 22 7 1.6 3.2 0.00 0.00 0.00 88 1015.1
20260902130238 22 30 0.0 3.2 0.00 0.00 0.00 88 1015.0
20260902130006 22 210 0.0 1.6 0.00 0.03 0.03 89 1013.2
20260902125733 22 230 0.0 1.6 0.00 0.00 0.00 88 1015.0
20260902125230 22 286 0.0 1.6 0.00 0.00 0.00 89 1014.8
20260902124726 22 167 0.0 3.2 0.00 0.00 0.00 89 1014.5
20260902124506 21 133 1.6 3.2 0.00 0.10 0.03 91 1012.9
20260902124221 22 89 0.0 1.6 0.00 0.00 0.00 90 1014.6
20260902123717 21 45 0.0 1.6 0.00 0.00 0.00 90 1014.6
20260902123213 21 52 0.0 1.6 0.00 0.00 0.00 90 1014.7
20260902123006 21 276 1.6 3.2 0.00 0.13 0.03 92 1012.7
20260902122711 21 45 3.2 3.2 0.00 0.00 0.00 90 1014.5
20260902122207 21 259 0.0 3.2 0.00 0.00 0.00 91 1014.3
20260902121702 21 174 1.6 3.2 0.00 0.00 0.00 91 1014.2
20260902121506 21 317 0.0 3.2 0.00 0.13 0.03 93 1012.5
20260902121202 21 106 0.0 3.2 0.00 0.00 0.00 92 1014.2
20260902120658 21 103 0.0 1.6 0.00 0.00 0.00 92 1014.2
20260902120154 21 73 3.2 3.2 0.00 0.00 0.00 93 1014.4
20260902115654 21 80 0.0 3.2 0.00 0.00 0.00 93 1014.2
20260902115150 21 72 0.0 3.2 0.00 0.00 0.00 93 1014.2
20260902114646 21 49 0.0 3.2 0.00 0.00 0.00 93 1014.5
20260902114141 21 32 3.2 3.2 0.00 0.00 0.00 93 1014.4
20260902113637 21 85 0.0 3.2 0.00 0.00 0.00 93 1014.3
20260902113132 21 25 3.2 3.2 0.00 0.00 0.00 93 1014.4
20260902113007 21 271 0.0 1.6 0.00 0.13 0.03 95 1012.6
20260902112626 21 25 0.0 1.6 0.00 0.00 0.00 94 1014.5
20260902112124 20 80 1.6 3.2 0.00 0.00 0.00 93 1014.4
20260902111619 20 239 0.0 1.6 0.00 0.00 0.00 94 1014.4
20260902111506 20 251 1.6 4.8 0.00 0.13 0.03 95 1012.5
20260902111115 20 236 1.6 3.2 0.00 0.00 0.00 94 1014.2
20260902110605 20 34 0.0 3.2 0.00 0.00 0.00 94 1014.5
20260902110008 20 273 1.6 3.2 0.00 0.13 0.03 95 1012.5
20260902105600 20 65 1.6 3.2 0.00 0.00 0.00 94 1014.3
20260902105055 20 89 0.0 3.2 0.00 0.00 0.00 94 1014.5
20260902104551 20 45 3.2 3.2 0.00 0.00 0.00 94 1014.4
20260902104506 20 133 1.6 1.6 0.00 0.13 0.03 95 1012.6
20260902104050 20 31 3.2 4.8 0.00 0.00 0.00 94 1014.3
20260902103546 20 73 0.0 3.2 0.00 0.00 0.00 94 1014.5
20260902103041 20 29 1.6 3.2 0.00 0.00 0.00 94 1014.6
20260902103007 20 235 0.0 4.8 0.00 0.13 0.03 95 1012.6
20260902102537 20 229 3.2 4.8 0.00 0.00 0.00 94 1014.6
20260902102034 20 63 0.0 3.2 0.00 0.00 0.00 94 1014.6
20260902101529 20 58 0.0 1.6 0.00 0.00 0.00 94 1014.6
20260902101029 20 51 0.0 3.2 0.00 0.00 0.00 94 1014.4
20260902100529 20 77 0.0 3.2 0.00 0.00 0.00 94 1014.4
20260902100029 20 63 1.6 3.2 0.00 0.00 0.00 94 1014.4
20260902100007 20 259 0.0 1.6 0.00 0.13 0.03 96 1012.5
20260902095528 20 65 0.0 3.2 0.00 0.00 0.00 94 1014.2
20260902095027 20 276 0.0 1.6 0.00 0.00 0.00 94 1014.2
20260902094523 20 124 0.0 1.6 0.00 0.00 0.00 94 1014.2
20260902094506 20 257 0.0 4.8 0.00 0.13 0.03 96 1012.4
20260902094018 20 41 3.2 4.8 0.00 0.00 0.00 95 1014.1
20260902093513 20 69 0.0 4.8 0.00 0.00 0.00 95 1014.1
20260902093013 20 224 1.6 3.2 0.00 0.00 0.00 95 1014.2
20260902093007 20 257 1.6 4.8 0.00 0.13 0.03 96 1012.3
20260902092508 20 248 1.6 4.8 0.00 0.00 0.00 96 1014.2
20260902092003 20 56 1.6 3.2 0.00 0.00 0.00 96 1014.1
20260902091459 20 29 0.0 3.2 0.00 0.00 0.00 96 1014.1
20260902090954 20 4 0.0 3.2 0.00 0.00 0.00 96 1013.9
20260902090450 20 72 0.0 1.6 0.00 0.00 0.00 96 1013.9
20260902090006 20 244 0.0 1.6 0.00 0.15 0.03 96 1012.0
20260902085948 20 16 0.0 3.2 0.00 0.00 0.00 96 1014.0
20260902085444 20 67 1.6 3.2 0.00 0.00 0.00 96 1014.0
20260902084939 20 48 0.0 1.6 0.00 0.00 0.00 96 1014.0
20260902084506 20 244 0.0 1.6 0.00 0.15 0.03 96 1012.2
20260902084435 20 45 1.6 3.2 0.00 0.00 0.00 96 1014.1
20260902083931 20 65 0.0 3.2 0.00 0.00 0.00 96 1014.1
20260902083430 20 49 3.2 3.2 0.00 0.00 0.00 96 1014.1
20260902082925 20 59 0.0 3.2 0.00 0.00 0.00 96 1014.0
20260902082421 20 70 3.2 3.2 0.00 0.00 0.00 96 1014.0
20260902081918 20 54 0.0 3.2 0.00 0.00 0.00 96 1013.8
20260902081508 20 244 0.0 0.0 0.00 0.15 0.03 96 1012.0
20260902081414 20 89 0.0 3.2 0.00 0.00 0.00 96 1013.8
20260902080914 20 32 0.0 1.6 0.00 0.00 0.00 96 1013.9
20260902080410 20 40 0.0 3.2 0.00 0.00 0.00 96 1013.7
20260902080007 20 244 0.0 0.0 0.00 0.15 0.03 96 1011.9
20260902075909 20 53 0.0 3.2 0.00 0.00 0.00 95 1013.7
20260902075406 20 69 0.0 3.2 0.00 0.00 0.00 95 1013.7
20260902074901 20 14 0.0 3.2 0.00 0.00 0.00 95 1013.7
20260902074507 20 244 0.0 1.6 0.00 0.15 0.03 96 1011.7
20260902074356 20 29 0.0 3.2 0.00 0.00 0.00 95 1013.7
20260902073851 20 36 1.6 3.2 0.00 0.00 0.00 95 1013.8
20260902073347 20 42 3.2 3.2 0.00 0.00 0.00 95 1013.8
20260902073008 20 244 0.0 1.6 0.00 0.15 0.03 96 1011.8
20260902072843 20 37 0.0 3.2 0.00 0.00 0.00 95 1013.8
20260902072338 20 3 0.0 3.2 0.00 0.00 0.00 95 1013.8
20260902071835 20 255 0.0 3.2 0.00 0.00 0.00 95 1013.9
20260902071506 20 244 0.0 1.6 0.00 0.15 0.03 96 1011.8
20260902071329 20 48 0.0 1.6 0.00 0.00 0.00 95 1014.1
20260902070826 20 256 0.0 1.6 0.00 0.00 0.00 95 1013.7
20260902070326 20 89 0.0 1.6 0.00 0.00 0.00 95 1013.7
20260902070007 20 244 0.0 0.0 0.00 0.15 0.03 96 1011.8
20260902065824 20 36 0.0 1.6 0.00 0.00 0.00 95 1013.9
20260902065320 20 58 0.0 1.6 0.00 0.00 0.00 96 1013.9
20260902064815 20 64 1.6 3.2 0.00 0.00 0.00 96 1014.0
20260902064311 20 58 1.6 1.6 0.00 0.00 0.00 96 1013.8
20260902063806 20 51 1.6 1.6 0.00 0.00 0.00 96 1013.9
20260902063301 20 81 0.0 3.2 0.00 0.00 0.00 96 1013.8
20260902063008 20 284 0.0 1.6 0.00 0.15 0.03 97 1011.9
20260902062801 20 39 3.2 3.2 0.00 0.00 0.00 97 1013.9
20260902062255 20 322 0.0 3.2 0.00 0.00 0.00 97 1013.9
20260902061754 20 306 1.6 3.2 0.00 0.00 0.00 97 1013.8
20260902061507 21 115 0.0 1.6 0.00 0.15 0.03 98 1011.8
20260902061250 20 85 0.0 3.2 0.00 0.00 0.00 97 1013.9
20260902060747 20 78 1.6 3.2 0.00 0.00 0.00 97 1013.9
20260902060242 20 2 0.0 1.6 0.00 0.00 0.00 97 1013.9
20260902060007 21 271 0.0 1.6 0.03 0.15 0.03 98 1012.0
20260902055738 20 195 0.0 3.2 0.00 0.00 0.00 97 1014.1
20260902055235 20 84 0.0 1.6 0.00 0.00 0.00 97 1014.0
20260902054734 20 89 0.0 1.6 0.00 0.00 0.00 97 1014.0
20260902054506 21 271 0.0 1.6 0.03 0.15 0.03 98 1011.9
20260902054231 20 81 1.6 3.2 0.00 0.00 0.00 97 1013.8
20260902053726 21 67 3.2 3.2 0.00 0.00 0.00 97 1013.8
20260902053225 21 31 1.6 3.2 0.00 0.00 0.00 98 1013.9
20260902053007 21 271 0.0 0.0 0.03 0.15 0.03 98 1011.9
20260902052724 21 80 0.0 3.2 0.00 0.00 0.00 98 1013.9
20260902052220 21 76 0.0 3.2 0.00 0.00 0.00 98 1013.8
20260902051719 21 61 0.0 3.2 0.00 0.00 0.00 97 1014.0
20260902051506 21 271 0.0 1.6 0.03 0.15 0.03 98 1012.0
20260902051214 20 89 0.0 3.2 0.00 0.00 0.00 98 1013.9
20260902050709 20 86 3.2 3.2 0.00 0.00 0.00 97 1013.9
20260902050205 20 58 0.0 1.6 0.00 0.00 0.00 97 1013.9
20260902050008 21 271 0.0 1.6 0.00 0.13 0.00 97 1012.0
20260902045704 20 240 0.0 1.6 0.00 0.00 0.00 97 1013.9
20260902045201 21 80 0.0 3.2 0.00 0.00 0.00 97 1013.6
20260902044655 21 53 1.6 3.2 0.00 0.00 0.00 97 1013.7
20260902044152 21 36 0.0 3.2 0.00 0.00 0.00 97 1013.8
20260902043647 21 72 0.0 3.2 0.00 0.00 0.00 97 1014.0
20260902043142 21 53 1.6 1.6 0.00 0.00 0.00 97 1013.7
20260902043008 21 271 0.0 1.6 0.00 0.13 0.00 97 1011.9
20260902042641 21 64 0.0 3.2 0.00 0.00 0.00 97 1013.8
20260902042137 21 53 1.6 3.2 0.00 0.00 0.00 97 1013.7
20260902041636 21 117 0.0 3.2 0.00 0.00 0.00 97 1013.8
20260902041506 21 271 0.0 1.6 0.00 0.13 0.00 97 1011.8
20260902041131 21 122 0.0 0.0 0.00 0.00 0.00 97 1013.5
20260902040631 21 46 1.6 3.2 0.00 0.00 0.00 97 1013.5
20260902040126 21 67 1.6 3.2 0.00 0.00 0.00 97 1013.4
20260902040007 21 271 0.0 0.0 0.00 0.13 0.00 96 1011.5
20260902035624 21 66 0.0 3.2 0.00 0.15 0.15 97 1013.4
20260902035120 21 89 0.0 3.2 0.00 0.15 0.15 97 1013.4
20260902034619 21 101 1.6 3.2 0.00 0.15 0.15 97 1013.2
20260902034506 21 271 0.0 0.0 0.00 0.13 0.13 96 1011.4
20260902034119 21 83 1.6 1.6 0.00 0.15 0.15 97 1013.1
20260902033618 21 68 1.6 3.2 0.00 0.15 0.15 97 1013.1
20260902033113 21 69 0.0 3.2 0.00 0.15 0.15 97 1013.1
20260902033008 21 271 0.0 1.6 0.00 0.13 0.13 97 1011.3
20260902032611 21 40 0.0 1.6 0.00 0.15 0.15 97 1013.0
20260902032106 21 5 0.0 1.6 0.00 0.15 0.15 97 1013.0
20260902031601 21 55 0.0 1.6 0.00 0.15 0.15 97 1013.2
20260902031506 21 271 0.0 0.0 0.00 0.13 0.13 97 1011.2
20260902031057 21 59 1.6 1.6 0.00 0.15 0.15 97 1013.2
20260902030557 21 63 0.0 1.6 0.00 0.15 0.15 97 1013.1
20260902030051 21 51 3.2 3.2 0.00 0.15 0.15 97 1012.9
20260902030007 22 271 0.0 0.0 0.00 0.13 0.13 97 1011.1
20260902025551 21 58 0.0 3.2 0.00 0.15 0.15 97 1012.7
20260902025047 21 89 0.0 1.6 0.00 0.15 0.15 97 1012.9
20260902024542 21 89 0.0 3.2 0.00 0.15 0.15 97 1012.6
20260902024507 22 271 0.0 0.0 0.00 0.13 0.13 96 1011.0
20260902024037 21 55 0.0 3.2 0.00 0.15 0.15 97 1012.4
20260902023532 21 68 0.0 1.6 0.00 0.15 0.15 97 1012.5
20260902023027 21 58 0.0 1.6 0.00 0.15 0.15 97 1012.3
20260902023008 22 271 0.0 0.0 0.00 0.13 0.13 96 1010.7
20260902022521 21 339 0.0 1.6 0.00 0.15 0.15 96 1012.3
20260902022017 21 69 0.0 3.2 0.00 0.15 0.15 96 1012.3
20260902021512 21 48 0.0 3.2 0.00 0.15 0.15 96 1012.5
20260902021507 22 271 0.0 0.0 0.00 0.15 0.13 95 1010.5
20260902021007 22 99 0.0 3.2 0.00 0.15 0.15 96 1012.5
20260902020503 22 40 0.0 3.2 0.00 0.15 0.15 96 1012.5
20260902020007 22 271 0.0 0.0 0.00 0.15 0.13 95 1010.6
20260902015959 22 44 1.6 3.2 0.00 0.15 0.15 96 1012.3
20260902015454 22 80 0.0 1.6 0.00 0.15 0.15 96 1012.5
20260902014950 22 345 0.0 1.6 0.00 0.15 0.15 96 1012.6
20260902014507 22 271 0.0 0.0 0.00 0.15 0.13 95 1010.5
20260902014446 22 118 0.0 3.2 0.00 0.15 0.15 95 1012.4
20260902013946 22 83 0.0 3.2 0.00 0.15 0.15 95 1012.2
20260902013442 22 58 3.2 3.2 0.00 0.15 0.15 95 1012.3
20260902013007 23 271 0.0 1.6 0.00 0.15 0.13 95 1010.5
20260902012942 22 136 0.0 3.2 0.00 0.15 0.15 95 1012.4
20260902012437 22 58 3.2 3.2 0.00 0.15 0.15 95 1012.5
20260902011933 22 278 0.0 3.2 0.00 0.15 0.15 95 1012.4
20260902011506 23 271 0.0 0.0 0.00 0.15 0.13 94 1010.5
20260902011428 22 38 1.6 3.2 0.00 0.15 0.15 95 1012.4
20260902010927 22 43 0.0 3.2 0.00 0.15 0.15 95 1012.4
20260902010423 22 59 3.2 3.2 0.00 0.15 0.15 95 1012.5
20260902005922 23 315 0.0 3.2 0.00 0.15 0.15 95 1012.3
20260902005421 23 58 3.2 4.8 0.00 0.15 0.15 95 1012.2
20260902004918 23 25 0.0 4.8 0.00 0.15 0.15 95 1012.3
20260902004508 23 250 0.0 3.2 0.00 0.15 0.13 94 1010.5
20260902004417 23 62 3.2 3.2 0.00 0.15 0.15 95 1012.2
20260902003913 23 283 0.0 3.2 0.05 0.15 0.15 95 1012.0
20260902003413 23 246 1.6 4.8 0.05 0.15 0.15 94 1011.4
20260902003008 23 281 0.0 3.2 0.00 0.15 0.13 92 1009.7
20260902002908 23 199 0.0 3.2 0.00 0.13 0.13 93 1011.3
20260902002408 23 69 0.0 1.6 0.00 0.13 0.13 92 1011.3
20260902001903 23 74 1.6 3.2 0.00 0.13 0.13 92 1010.9
20260902001507 24 40 0.0 1.6 0.00 0.15 0.13 91 1009.1
20260902001358 23 35 0.0 3.2 0.00 0.13 0.13 92 1010.7
20260902000853 23 11 0.0 3.2 0.00 0.13 0.13 92 1010.8
20260902000353 23 46 0.0 1.6 0.00 0.13 0.13 92 1010.9
20260902000006 24 40 0.0 1.6 0.00 0.15 0.13 90 1009.3
20260901235849 23 37 3.2 3.2 0.00 0.13 0.13 91 1010.9
20260901235348 23 25 0.0 1.6 0.00 0.13 0.13 91 1010.9
20260901234845 24 335 0.0 3.2 0.00 0.13 0.13 91 1011.0
20260901234506 24 40 0.0 0.0 0.00 0.15 0.13 89 1009.4
20260901234343 24 85 0.0 3.2 0.00 0.13 0.13 90 1011.0
20260901233839 24 63 0.0 3.2 0.00 0.13 0.13 90 1011.2
20260901233334 24 59 1.6 3.2 0.00 0.13 0.13 90 1011.4
20260901233007 25 40 0.0 1.6 0.00 0.15 0.13 88 1009.7
20260901232830 24 235 0.0 0.0 0.00 0.13 0.13 89 1011.6
20260901232325 25 42 0.0 1.6 0.00 0.13 0.13 89 1011.2
20260901231821 25 37 0.0 1.6 0.00 0.13 0.13 89 1011.1
20260901231317 25 34 0.0 3.2 0.00 0.13 0.13 89 1011.0
20260901230813 25 75 3.2 3.2 0.00 0.13 0.13 89 1010.7
20260901230312 25 41 1.6 3.2 0.00 0.13 0.13 89 1011.0
20260901230006 25 34 0.0 1.6 0.00 0.15 0.13 87 1009.5
20260901225808 25 71 0.0 0.0 0.00 0.13 0.13 88 1011.2
20260901225308 25 0 0.0 1.6 0.00 0.13 0.13 87 1011.1
20260901224803 25 37 0.0 3.2 0.00 0.13 0.13 87 1011.3
20260901224506 25 34 0.0 1.6 0.00 0.15 0.13 86 1009.5
20260901224259 25 65 0.0 3.2 0.00 0.13 0.13 87 1011.7
20260901223755 25 66 1.6 3.2 0.00 0.13 0.13 86 1011.3
20260901223249 25 68 3.2 3.2 0.00 0.13 0.13 86 1011.2
20260901223007 25 34 0.0 1.6 0.00 0.15 0.13 85 1009.5
20260901222746 25 36 1.6 3.2 0.00 0.13 0.13 86 1011.3
20260901222242 25 43 1.6 1.6 0.00 0.13 0.13 85 1011.7
20260901221738 25 55 0.0 1.6 0.00 0.13 0.13 85 1011.1
20260901221506 26 34 0.0 1.6 0.00 0.15 0.13 83 1009.4
20260901221233 25 269 0.0 1.6 0.00 0.13 0.13 84 1011.0
20260901220733 25 193 0.0 3.2 0.00 0.13 0.13 82 1010.5
20260901220232 26 37 0.0 1.6 0.00 0.13 0.13 83 1010.5
20260901220007 26 34 0.0 1.6 0.00 0.15 0.13 81 1008.6
20260901215731 26 89 0.0 1.6 0.00 0.13 0.13 82 1010.2
20260901215226 26 3 0.0 1.6 0.00 0.13 0.13 81 1009.9
20260901214724 26 65 0.0 3.2 0.00 0.13 0.13 81 1009.8
20260901214218 26 133 0.0 3.2 0.00 0.13 0.13 80 1010.2
20260901213717 26 31 1.6 3.2 0.00 0.13 0.13 79 1010.2
20260901213213 27 214 0.0 1.6 0.00 0.13 0.13 79 1010.3
20260901213007 27 34 0.0 1.6 0.00 0.18 0.13 78 1008.3
20260901212712 27 64 0.0 1.6 0.00 0.13 0.13 78 1010.1
20260901212208 27 1 0.0 1.6 0.00 0.13 0.13 78 1010.2
20260901211708 27 62 0.0 1.6 0.00 0.13 0.13 76 1010.1
20260901211506 27 34 0.0 1.6 0.00 0.28 0.13 77 1008.4
20260901211205 27 66 0.0 1.6 0.00 0.13 0.13 79 1010.1
20260901210700 27 185 0.0 1.6 0.00 0.13 0.13 75 1010.4
20260901210155 27 269 0.0 3.2 0.00 0.13 0.13 73 1010.6
20260901210008 28 37 0.0 4.8 0.00 0.28 0.13 71 1008.6
20260901205651 28 93 0.0 1.6 0.00 0.13 0.13 72 1010.3
20260901205151 28 338 3.2 4.8 0.00 0.13 0.13 69 1010.3
20260901204648 29 28 3.2 6.4 0.00 0.13 0.13 69 1009.9
20260901204506 29 53 1.6 4.8 0.00 0.28 0.13 68 1008.1
20260901204143 29 26 3.2 4.8 0.00 0.13 0.13 68 1009.9
20260901203642 29 3 3.2 4.8 0.00 0.13 0.13 67 1010.1
20260901203138 28 59 1.6 3.2 0.00 0.13 0.13 69 1010.0
20260901203007 29 26 1.6 4.8 0.00 0.28 0.13 66 1008.2
20260901202637 28 36 3.2 4.8 0.00 0.13 0.13 67 1010.4
20260901202133 29 6 3.2 3.2 0.00 0.13 0.13 65 1010.4
20260901201629 30 38 0.0 6.4 0.00 0.13 0.13 64 1010.3
20260901201507 30 33 3.2 4.8 0.00 0.28 0.13 62 1008.4
20260901201128 31 11 4.8 4.8 0.00 0.13 0.13 61 1010.4
20260901200627 31 358 3.2 4.8 0.00 0.13 0.13 61 1010.3
20260901200122 31 162 0.0 3.2 0.00 0.13 0.13 60 1010.3
20260901200007 30 115 1.6 4.8 0.00 0.28 0.13 66 1008.4
20260901195621 31 358 0.0 4.8 0.00 0.13 0.13 62 1010.4
20260901195120 30 71 0.0 4.8 0.00 0.13 0.13 62 1010.3
20260901194616 31 245 4.8 6.4 0.00 0.13 0.13 61 1010.5
20260901194506 30 204 0.0 4.8 0.00 0.28 0.13 66 1008.5
20260901194111 30 0 0.0 3.2 0.00 0.13 0.13 67 1010.5
20260901193607 30 331 1.6 3.2 0.00 0.13 0.13 65 1010.6
20260901193101 29 274 1.6 4.8 0.00 0.13 0.13 68 1010.4
20260901192555 29 250 3.2 3.2 0.00 0.13 0.13 71 1010.6
20260901192051 28 226 6.4 6.4 0.00 0.13 0.13 72 1010.5
20260901191547 29 254 3.2 4.8 0.00 0.13 0.13 68 1010.4
20260901191506 29 235 1.6 4.8 0.00 0.28 0.13 68 1008.7
20260901191043 30 237 1.6 4.8 0.00 0.13 0.13 65 1010.7
20260901190538 30 245 4.8 6.4 0.00 0.13 0.13 66 1010.6
20260901190038 30 274 3.2 3.2 0.00 0.13 0.13 62 1010.7
20260901185536 30 15 1.6 4.8 0.00 0.13 0.13 63 1010.6
20260901185036 30 255 1.6 6.4 0.00 0.13 0.13 69 1010.7
20260901184531 30 279 1.6 3.2 0.00 0.13 0.13 70 1010.9
20260901184508 28 25 0.0 4.8 0.00 0.28 0.13 73 1008.8
20260901184026 29 59 3.2 3.2 0.00 0.13 0.13 67 1010.7
20260901183521 29 248 4.8 4.8 0.00 0.13 0.13 74 1010.7
20260901183017 28 271 3.2 6.4 0.00 0.13 0.13 71 1010.7
20260901183007 28 257 3.2 4.8 0.00 0.28 0.13 76 1008.8
20260901182513 29 274 1.6 3.2 0.00 0.13 0.13 70 1010.8
20260901182012 28 263 1.6 3.2 0.00 0.13 0.13 76 1010.9
20260901181512 27 9 0.0 6.4 0.00 0.13 0.13 75 1011.0
20260901181506 27 256 1.6 4.8 0.00 0.30 0.13 77 1008.9
20260901181011 27 196 0.0 3.2 0.00 0.13 0.13 74 1010.9
20260901180510 27 31 1.6 3.2 0.00 0.13 0.13 75 1011.0
20260901180010 27 269 0.0 4.8 0.00 0.13 0.13 75 1010.8
20260901180006 26 252 1.6 3.2 0.00 0.36 0.13 79 1009.1
20260901175504 27 34 1.6 3.2 0.00 0.13 0.13 76 1010.9
20260901174959 26 226 0.0 3.2 0.00 0.13 0.13 77 1010.9
20260901174507 26 256 0.0 4.8 0.00 0.46 0.13 79 1009.0
20260901174454 26 350 0.0 3.2 0.00 0.13 0.13 79 1010.9
20260901173950 26 269 0.0 6.4 0.00 0.13 0.13 77 1011.0
20260901173445 26 82 4.8 4.8 0.00 0.13 0.13 77 1010.8
20260901173007 25 175 0.0 3.2 0.00 0.51 0.13 83 1009.0
20260901172942 26 86 1.6 3.2 0.00 0.13 0.13 81 1010.7
20260901172437 26 76 1.6 3.2 0.00 0.13 0.13 81 1011.1
20260901171935 25 302 0.0 3.2 0.00 0.13 0.13 82 1011.0
20260901171507 25 257 0.0 4.8 0.00 0.51 0.13 82 1009.2
20260901171433 25 275 3.2 3.2 0.00 0.13 0.13 82 1010.8
20260901170932 25 271 0.0 3.2 0.00 0.13 0.13 81 1011.0
20260901170427 26 5 1.6 6.4 0.00 0.13 0.13 78 1011.1
20260901170008 25 272 0.0 3.2 0.00 0.51 0.13 82 1009.3
20260901165927 26 42 0.0 3.2 0.00 0.13 0.13 79 1011.0
20260901165421 26 255 3.2 3.2 0.00 0.13 0.13 81 1011.1
20260901164918 25 119 0.0 3.2 0.00 0.13 0.13 81 1011.1
20260901164507 25 262 0.0 3.2 0.00 0.51 0.13 83 1009.4
20260901164418 25 20 0.0 3.2 0.00 0.13 0.13 80 1011.1
20260901163913 25 273 1.6 3.2 0.00 0.13 0.13 80 1011.3
20260901163408 25 21 0.0 4.8 0.00 0.13 0.13 84 1011.3
20260901163008 25 277 0.0 1.6 0.00 0.51 0.13 85 1009.4
20260901162902 25 271 3.2 3.2 0.00 0.13 0.13 84 1011.2
20260901162402 25 10 0.0 3.2 0.00 0.13 0.13 82 1011.3
20260901161856 25 303 0.0 3.2 0.00 0.13 0.13 81 1011.3
20260901161507 25 61 0.0 3.2 0.00 0.51 0.13 82 1009.6
20260901161355 25 62 0.0 1.6 0.00 0.13 0.13 80 1011.7
20260901160856 26 48 3.2 4.8 0.00 0.13 0.13 78 1011.7
20260901160352 25 31 1.6 3.2 0.00 0.13 0.13 81 1011.6
20260901155851 25 24 3.2 3.2 0.00 0.13 0.13 82 1011.6
20260901155346 25 74 4.8 4.8 0.00 0.13 0.13 83 1011.4
20260901154843 25 356 0.0 3.2 0.00 0.13 0.13 83 1011.6
20260901154507 23 104 1.6 3.2 0.00 0.51 0.13 89 1009.8
20260901154342 25 12 1.6 3.2 0.00 0.13 0.13 84 1011.4
20260901153837 25 249 0.0 4.8 0.00 0.13 0.13 84 1011.6
20260901153332 24 20 0.0 4.8 0.00 0.13 0.13 86 1011.6
20260901152830 24 34 0.0 3.2 0.00 0.13 0.13 89 1011.6
20260901152330 23 235 0.0 4.8 0.00 0.13 0.13 88 1011.7
20260901151825 23 321 0.0 6.4 0.00 0.13 0.13 88 1011.9
20260901151507 22 241 1.6 3.2 0.00 0.51 0.13 99 1010.0
20260901151320 23 292 0.0 4.8 0.00 0.13 0.13 91 1011.8
20260901150819 22 17 1.6 6.4 0.00 0.13 0.13 91 1011.7
20260901150317 22 276 1.6 4.8 0.00 0.13 0.13 92 1011.8
20260901150007 21 248 1.6 4.8 0.00 0.51 0.13 100 1010.1
20260901145815 22 82 0.0 4.8 0.00 0.13 0.13 94 1012.0
20260901145315 22 255 0.0 3.2 0.00 0.13 0.13 94 1012.0
20260901144810 21 44 0.0 3.2 0.00 0.13 0.13 96 1012.0
20260901144507 21 171 1.6 1.6 0.00 0.51 0.13 100 1010.2
20260901144306 21 7 0.0 1.6 0.00 0.13 0.13 97 1012.0
20260901143802 21 50 0.0 1.6 0.00 0.13 0.13 97 1012.0
20260901143258 21 227 0.0 3.2 0.00 0.13 0.13 97 1012.1
20260901143008 20 87 0.0 1.6 0.00 0.51 0.13 100 1010.2
20260901142754 21 79 0.0 3.2 0.00 0.13 0.13 98 1012.1
20260901142252 21 66 1.6 3.2 0.00 0.13 0.13 98 1012.0
20260901141748 20 227 0.0 1.6 0.00 0.13 0.13 98 1011.9
20260901141248 20 297 0.0 1.6 0.00 0.13 0.13 98 1012.2
20260901140747 20 70 0.0 3.2 0.00 0.13 0.13 98 1012.3
20260901140246 20 72 0.0 3.2 0.00 0.13 0.13 98 1012.3
20260901140007 20 87 0.0 3.2 0.00 0.51 0.13 100 1010.6
20260901135741 20 50 0.0 3.2 0.00 0.13 0.13 99 1012.2
20260901135241 20 237 0.0 3.2 0.00 0.13 0.13 99 1012.3
20260901134737 20 33 1.6 3.2 0.00 0.13 0.13 99 1012.3
20260901134506 20 334 0.0 1.6 0.08 0.51 0.13 100 1010.5
20260901134237 20 49 1.6 3.2 0.00 0.13 0.13 99 1012.1
20260901133737 20 37 3.2 3.2 0.00 0.13 0.13 99 1012.0